Theta_e
324 325 326 331 336 341 343 347 354 351 348 348 349 349 346 348 341 339 340 340 341 341 341 341 343 346 349 345 345 347 348 347 344 342 343 341 345 345 347 347 345 351 346 349
324 324 325 329 332 339 343 353 355 352 350 348 348 349 346 345 345 343 340 341 341 342 342 341 343 345 349 347 346 347 348 345 345 347 346 348 343 343 347 349 347 343 347 344
324 325 325 326 330 337 344 349 352 354 348 344 347 350 350 344 340 342 345 344 342 344 341 346 344 343 345 349 348 348 347 345 346 347 348 348 347 346 346 347 344 345 345 347
323 326 326 325 329 333 343 347 349 352 350 354 349 360 353 346 342 341 344 346 343 345 343 344 344 345 345 345 348 347 345 345 345 350 351 346 347 346 346 347 347 347 345 345
322 323 326 326 328 333 342 348 350 351 352 353 354 357 356 348 344 342 340 346 344 342 344 346 346 346 345 346 347 349 347 344 346 346 347 344 348 349 347 348 348 348 346 346
324 324 327 327 328 333 337 345 347 347 350 350 350 357 362 357 354 345 342 346 346 344 345 343 346 344 348 347 348 348 346 344 346 345 347 348 348 349 348 348 349 347 348 346
323 324 327 328 328 332 337 337 349 356 356 356 349 355 355 354 351 344 344 345 344 343 345 343 346 346 345 347 349 349 346 347 348 347 347 348 350 349 349 346 349 349 350 345
323 323 329 328 330 331 338 337 344 350 349 354 348 352 350 352 348 342 342 344 345 344 343 343 345 346 345 347 349 350 346 346 349 348 349 346 351 348 348 346 349 349 347 349
327 325 328 329 330 331 335 336 337 344 344 346 352 350 353 350 346 341 343 346 345 346 343 345 347 347 340 346 350 349 347 342 348 350 347 348 345 352 353 350 348 348 349 348
327 330 327 329 329 330 333 334 337 339 348 349 349 353 355 352 349 346 348 348 346 344 344 346 348 344 343 345 347 349 349 344 347 350 347 346 348 347 350 349 348 352 347 351
327 329 330 329 329 328 329 330 332 336 338 342 354 354 352 348 346 352 350 347 347 345 344 345 348 346 346 345 346 353 351 348 346 353 348 348 345 347 344 350 345 348 350 351
328 328 330 331 329 328 328 328 330 333 338 339 340 348 340 340 346 347 349 350 347 345 346 348 348 346 350 349 346 352 351 351 351 350 351 349 350 350 347 347 349 345 346 346
329 328 329 330 330 328 327 328 327 328 332 339 341 349 341 342 349 348 348 350 348 350 348 347 345 349 347 347 346 348 352 349 351 348 351 347 349 348 350 350 348 353 348 345
326 328 329 330 332 332 327 326 328 327 330 333 335 350 350 346 353 351 351 351 353 351 349 342 340 349 346 339 338 351 350 346 340 352 351 348 350 349 347 349 350 347 351 348
327 329 330 330 331 331 332 327 326 328 328 330 337 346 351 345 351 350 351 351 351 350 350 346 341 349 347 338 346 352 352 351 349 346 350 350 349 350 351 350 349 350 347 351
329 331 332 332 332 331 332 332 327 328 328 328 330 348 336 336 341 349 353 351 350 350 349 352 350 350 347 343 347 350 349 346 344 343 343 344 345 341 346 346 347 348 350 347
330 334 336 336 333 332 332 337 336 331 329 330 338 350 336 334 333 335 348 352 352 353 353 352 350 350 347 346 347 346 344 343 340 341 342 343 343 344 345 346 346 345 344 345
328 332 332 335 336 336 335 334 334 336 340 341 346 347 338 336 342 346 346 344 346 348 346 350 350 348 347 346 344 343 343 343 342 342 341 341 341 342 343 343 343 344 345 344
325 328 331 336 336 334 334 333 331 331 341 334 344 335 341 345 344 344 343 342 343 345 346 346 347 346 345 346 345 344 344 343 344 341 341 341 340 340 341 340 341 342 345 346
324 329 329 332 336 337 334 331 329 328 338 333 333 339 342 344 346 342 341 340 338 339 343 343 343 344 344 344 342 342 342 343 343 341 341 341 341 340 340 340 338 341 342 341
328 327 329 328 331 333 328 329 326 332 337 331 338 341 333 340 341 339 338 337 334 337 338 338 339 339 339 338 341 342 342 342 341 340 340 340 339 338 337 336 335 336 336 338
327 330 330 330 331 335 326 328 332 331 331 330 335 339 339 340 339 338 337 334 332 331 332 333 334 334 334 335 336 338 338 338 339 339 339 339 338 337 337 338 338 338 338 339
328 322 332 333 332 327 327 327 327 328 330 330 330 338 336 337 336 335 334 333 331 329 328 327 326 326 326 327 329 331 332 332 333 334 335 333 331 331 332 335 336 337 336 335
324 324 331 331 328 326 325 325 325 326 327 328 330 334 336 336 335 334 333 332 330 328 326 325 324 323 322 318 316 317 320 323 325 328 328 328 330 329 328 327 329 330 331 332
326 325 323 329 328 326 325 325 324 324 325 326 328 330 334 335 334 332 331 331 328 326 324 321 320 319 317 315 313 311 313 315 316 315 316 316 319 319 325 325 326 327 328 328
321 322 322 328 328 327 326 325 323 322 323 324 326 328 332 334 332 331 332 331 329 327 325 324 322 320 317 316 316 313 312 315 318 317 316 318 318 317 315 318 322 321 318 325
Wind_Speed
18 11 15 18 20 10 16 14 9 15 12 6 5 3 11 13 14 24 24 24 22 23 22 20 20 19 19 19 20 14 14 17 17 23 20 22 13 16 11 11 8 6 8 6
10 16 17 17 18 15 21 24 17 12 18 3 8 10 15 15 11 12 23 25 22 25 26 23 24 22 23 18 17 17 19 18 15 14 15 19 19 17 11 9 7 8 4 7
17 14 16 17 17 17 21 10 19 13 16 8 7 8 14 16 10 14 14 11 27 31 26 25 22 22 21 18 17 19 17 16 14 13 13 19 16 13 13 11 7 9 5 7
16 17 17 18 17 17 12 15 14 25 14 6 14 3 9 15 15 16 20 18 14 27 25 29 23 20 24 21 14 14 11 15 13 14 9 16 16 13 14 12 11 9 10 9
14 14 10 15 17 15 8 22 16 19 14 6 21 5 9 20 21 20 28 22 19 28 24 25 28 27 23 24 22 15 11 13 14 14 15 14 13 9 14 13 12 12 10 10
15 17 9 15 11 13 5 23 20 10 5 6 17 11 10 19 27 26 28 24 19 32 33 34 30 31 28 27 24 22 17 13 17 16 16 15 13 12 13 16 12 9 9 12
15 15 9 10 14 18 13 12 4 2 5 9 17 14 10 26 27 32 30 32 28 36 34 37 40 32 28 27 28 25 21 16 17 16 15 13 11 11 16 13 10 10 9 7
11 12 15 15 18 17 13 15 5 8 2 6 10 4 7 26 34 39 38 36 35 38 32 37 34 34 32 26 32 26 22 19 16 17 17 14 11 8 9 12 13 9 11 10
7 15 13 19 15 17 15 14 18 17 13 1 6 1 11 21 25 33 38 39 39 41 33 39 41 47 32 27 27 28 23 21 21 19 18 17 15 14 10 12 12 10 10 8
10 10 15 15 13 16 17 11 13 11 15 10 2 3 3 19 27 27 32 37 34 24 38 36 30 40 37 36 24 27 22 20 24 21 20 19 15 16 14 13 15 9 15 12
15 8 15 14 13 16 13 14 14 17 14 12 3 4 2 2 14 19 27 29 30 27 22 22 34 38 36 28 29 26 22 20 21 24 16 18 16 13 14 12 12 15 14 12
13 8 7 15 12 16 15 16 15 11 15 15 8 5 11 13 15 37 28 32 35 34 27 22 25 30 38 37 36 25 21 21 22 24 22 20 18 15 9 13 8 8 13 15
8 10 10 14 12 15 18 19 18 17 16 15 9 3 13 22 23 14 23 26 38 31 28 24 20 23 31 29 23 17 25 25 22 24 26 22 22 21 16 11 12 10 9 8
8 15 15 7 9 16 17 18 19 16 13 12 17 17 18 18 14 22 28 27 29 27 30 27 15 8 22 20 6 24 16 21 26 24 25 22 20 16 14 12 11 14 10 7
7 15 16 9 8 23 21 12 18 16 20 16 8 10 11 15 11 19 25 29 29 28 25 28 24 27 18 24 25 19 27 29 31 28 16 8 14 12 14 13 13 14 14 11
5 8 12 13 9 19 16 23 19 22 20 17 10 18 13 23 24 13 14 13 22 22 23 21 26 25 25 25 28 28 24 24 21 22 23 23 10 15 15 19 18 15 14 16
7 3 7 9 10 15 14 12 17 13 6 14 1 12 18 17 25 20 14 8 9 12 16 19 23 29 31 33 27 22 20 18 17 14 13 12 12 13 11 9 10 13 18 18
8 3 2 3 4 2 13 9 17 13 19 26 18 18 18 21 19 15 5 4 12 16 14 20 22 21 15 13 15 17 19 18 16 12 11 11 9 12 16 13 13 13 16 18
12 4 2 5 2 4 7 14 7 15 11 17 15 12 18 21 24 12 6 6 8 13 12 14 17 18 21 19 19 19 15 13 11 8 8 6 6 9 11 13 10 13 14 16
12 8 5 0 3 2 9 20 28 23 6 17 6 7 2 14 5 6 15 15 10 10 12 13 12 11 11 14 16 12 15 16 16 15 11 6 5 7 9 8 6 6 15 11
10 7 9 5 1 2 8 17 19 13 4 11 12 18 33 7 12 17 15 18 14 13 13 12 11 11 11 12 13 14 14 14 14 12 11 10 7 6 6 9 8 8 7 9
0 6 9 6 3 7 3 7 1 2 7 11 13 12 18 18 17 16 15 18 15 15 16 15 15 13 11 10 9 10 10 12 13 18 20 17 12 9 10 8 8 7 10 10
4 6 3 7 5 8 14 14 9 7 9 10 8 6 10 14 15 14 17 16 16 16 16 15 16 15 12 12 10 10 10 10 12 14 17 16 11 11 9 13 11 8 8 4
6 5 6 11 10 11 8 9 9 9 8 5 6 9 11 15 13 13 16 17 17 16 15 14 14 14 13 11 9 9 10 9 8 8 8 10 10 11 11 10 11 10 12 13
5 1 0 10 12 8 5 9 6 7 7 8 7 6 9 17 15 17 17 15 14 15 13 12 11 13 11 9 9 8 9 9 7 7 4 5 7 8 11 11 14 14 13 15
4 1 2 5 10 13 13 7 3 3 5 6 6 4 8 10 14 13 14 15 17 17 14 14 11 12 12 10 9 9 8 8 7 7 5 2 1 4 7 13 16 13 12 16
Wind_Direction
204 213 219 218 231 243 219 135 135 116 136 126 172 193 251 247 197 178 183 168 174 169 163 163 163 164 162 161 162 152 156 170 174 161 157 158 161 145 160 177 179 146 140 171
183 227 233 224 236 227 259 104 104 105 141 151 185 215 230 229 234 234 186 172 184 161 164 167 163 160 157 156 177 174 176 181 172 162 171 155 162 161 148 157 198 175 190 166
234 214 223 246 244 242 241 136 165 152 137 110 172 242 230 224 256 224 232 254 175 165 164 157 166 170 162 165 164 173 186 189 171 152 155 147 163 161 181 184 192 170 195 156
236 252 210 228 237 251 248 135 132 140 155 165 186 200 203 212 213 218 236 252 164 174 180 174 177 182 159 164 179 188 195 189 183 160 166 156 162 165 182 166 186 193 183 186
226 240 238 226 227 245 169 138 175 151 181 350 190 238 195 187 214 216 225 232 191 188 186 171 180 181 181 169 172 192 198 188 185 183 180 172 151 181 203 176 189 191 198 196
261 207 244 238 234 241 204 120 117 95 70 284 231 205 161 187 202 204 207 216 209 190 186 183 181 181 176 173 170 179 198 190 184 181 172 167 175 194 157 165 192 201 208 199
230 255 254 224 232 232 228 228 128 41 175 226 210 194 226 198 200 191 193 199 198 209 208 184 193 186 176 172 171 174 186 194 185 181 181 187 173 176 177 173 175 196 190 196
213 220 218 219 237 227 206 229 222 220 278 123 192 276 230 182 188 186 192 199 205 211 208 184 191 182 177 180 171 172 182 187 187 182 177 176 175 173 166 172 169 181 199 214
255 219 205 219 216 244 208 226 253 266 283 324 185 343 113 162 169 183 189 203 206 211 188 191 174 177 184 190 173 185 187 187 181 184 188 189 187 174 191 189 181 185 165 215
291 289 254 199 205 250 258 226 235 249 255 252 132 182 109 168 171 187 197 197 207 203 174 178 169 179 174 177 179 189 193 194 179 188 199 194 197 191 190 188 185 197 182 202
264 281 288 181 197 214 230 251 264 257 253 262 132 293 288 331 327 197 186 192 195 197 196 162 190 178 173 170 181 183 189 184 178 194 202 189 193 200 195 194 198 196 204 202
302 264 270 254 207 216 241 226 244 250 255 268 299 88 149 74 320 276 174 183 185 196 202 195 168 173 163 171 175 176 180 189 187 194 202 194 184 192 205 182 208 211 220 224
312 251 255 250 289 215 218 241 228 253 255 269 290 140 176 165 205 240 173 169 175 186 197 199 156 169 179 162 166 199 200 186 196 203 204 207 191 186 189 209 192 217 245 235
298 273 270 342 318 306 198 236 243 236 251 243 255 134 175 198 187 180 145 162 163 173 190 191 202 150 183 179 197 207 193 230 226 208 204 200 195 196 193 196 206 221 232 229
238 260 283 340 298 277 292 232 239 242 246 257 150 156 106 50 301 155 142 152 165 173 177 190 186 188 177 161 210 202 193 189 204 219 206 218 176 195 205 195 205 220 225 232
261 285 308 270 249 269 262 273 214 238 235 254 245 92 83 59 20 349 116 129 160 175 185 178 175 169 174 168 192 209 197 196 219 231 237 244 200 203 226 220 218 217 213 226
296 17 350 300 10 342 286 352 8 276 253 278 55 94 92 93 99 339 330 162 131 132 161 162 170 174 171 177 183 195 193 199 213 222 211 211 206 213 220 220 230 237 232 229
252 86 48 339 8 242 351 2 357 4 33 38 69 88 105 126 139 157 196 202 130 134 146 163 169 165 169 186 196 200 204 209 212 237 236 239 233 245 252 250 244 244 233 228
242 226 166 254 172 240 298 14 4 347 7 32 50 98 113 127 118 112 154 210 159 162 159 142 166 169 181 183 198 196 199 210 218 194 173 186 208 226 237 239 247 246 224 217
263 137 227 197 61 335 336 323 327 322 29 360 22 103 97 155 134 124 142 140 147 157 168 186 196 188 186 199 198 200 198 194 185 186 187 198 229 230 244 234 227 221 215 224
318 276 213 169 77 106 248 258 309 267 44 347 31 73 146 144 110 139 140 134 129 139 145 156 160 171 178 182 193 194 186 192 205 210 203 175 191 192 204 212 217 197 189 235
261 343 292 123 38 180 289 273 340 95 31 21 12 50 84 106 125 136 136 123 122 122 122 121 128 137 141 147 163 167 170 172 179 179 170 169 169 182 190 182 197 210 211 229
121 209 275 347 117 116 87 93 74 70 55 36 354 65 73 98 119 128 126 120 122 121 117 115 115 110 111 117 120 141 156 166 176 184 184 167 153 190 182 180 163 155 152 108
176 145 179 188 135 115 104 97 81 65 62 28 10 50 119 118 127 131 134 133 134 131 126 124 120 120 122 124 132 133 133 133 132 148 168 179 155 137 138 137 147 192 179 168
53 241 232 122 138 148 140 94 67 64 47 37 34 37 89 124 132 142 147 148 137 132 130 136 130 122 116 110 113 123 123 113 105 111 134 177 184 195 181 183 199 192 201 191
214 192 231 47 121 103 118 116 74 48 37 27 24 38 74 116 141 158 158 153 151 150 141 135 134 144 135 133 133 128 132 141 129 120 124 137 200 275 232 220 221 226 223 216